#datetime,building,power
2022-11-04T00:00:00,cen,4.80
2022-11-04T00:02:00,cen,9.60
2022-11-04T00:03:00,cen,9.60
2022-11-04T00:04:00,cen,3.60
2022-11-04T00:05:00,cen,8.40
2022-11-04T00:06:00,cen,3.60
2022-11-04T00:08:00,cen,8.40
2022-11-04T00:09:00,cen,3.60
2022-11-04T00:10:00,cen,3.60
2022-11-04T00:12:00,cen,7.20
2022-11-04T00:13:00,cen,4.80
2022-11-04T00:15:00,cen,7.20
2022-11-04T00:17:00,cen,7.20
2022-11-04T00:18:00,cen,4.80
2022-11-04T00:20:00,cen,9.60
2022-11-04T00:22:00,cen,7.20
2022-11-04T00:24:00,cen,6.00
2022-11-04T00:26:00,cen,7.20
2022-11-04T00:28:00,cen,6.00
2022-11-04T00:30:00,cen,8.40
2022-11-04T00:31:00,cen,12.00
2022-11-04T00:33:00,cen,24.00
2022-11-04T00:34:00,cen,12.00
2022-11-04T00:35:00,cen,9.60
2022-11-04T00:37:00,cen,6.00
2022-11-04T00:38:00,cen,4.80
2022-11-04T00:40:00,cen,8.40
2022-11-04T00:42:00,cen,7.20
2022-11-04T00:43:00,cen,3.60
2022-11-04T00:45:00,cen,7.20
2022-11-04T00:46:00,cen,3.60
2022-11-04T00:48:00,cen,7.20
2022-11-04T00:49:00,cen,3.60
2022-11-04T00:51:00,cen,6.00
2022-11-04T00:53:00,cen,7.20
2022-11-04T00:55:00,cen,6.00
2022-11-04T00:57:00,cen,7.20
2022-11-04T00:58:00,cen,4.80
2022-11-04T01:00:00,cen,8.40
2022-11-04T01:01:00,cen,2.40
2022-11-04T01:02:00,cen,3.60
2022-11-04T01:03:00,cen,3.60
2022-11-04T01:05:00,cen,6.00
2022-11-04T01:06:00,cen,3.60
2022-11-04T01:08:00,cen,7.20
2022-11-04T01:10:00,cen,7.20
2022-11-04T01:11:00,cen,3.60
2022-11-04T01:13:00,cen,6.00
2022-11-04T01:15:00,cen,7.20
2022-11-04T01:17:00,cen,8.40
2022-11-04T01:19:00,cen,9.60
2022-11-04T01:21:00,cen,6.00
2022-11-04T01:23:00,cen,7.20
2022-11-04T01:25:00,cen,7.20
2022-11-04T01:27:00,cen,7.20
2022-11-04T01:29:00,cen,7.20
2022-11-04T01:31:00,cen,7.20
2022-11-04T01:33:00,cen,6.00
2022-11-04T01:34:00,cen,4.80
2022-11-04T01:35:00,cen,2.40
2022-11-04T01:37:00,cen,8.40
2022-11-04T01:39:00,cen,8.40
2022-11-04T01:40:00,cen,3.60
2022-11-04T01:42:00,cen,7.20
2022-11-04T01:44:00,cen,7.20
2022-11-04T01:45:00,cen,3.60
2022-11-04T01:47:00,cen,6.00
2022-11-04T01:49:00,cen,8.40
2022-11-04T01:50:00,cen,2.40
2022-11-04T01:52:00,cen,6.00
2022-11-04T01:53:00,cen,4.80
2022-11-04T01:54:00,cen,2.40
2022-11-04T01:55:00,cen,3.60
2022-11-04T01:56:00,cen,3.60
2022-11-04T01:58:00,cen,6.00
2022-11-04T02:00:00,cen,7.20
2022-11-04T02:01:00,cen,3.60
2022-11-04T02:02:00,cen,4.80
2022-11-04T02:04:00,cen,8.40
2022-11-04T02:05:00,cen,3.60
2022-11-04T02:07:00,cen,6.00
2022-11-04T02:08:00,cen,3.60
2022-11-04T02:09:00,cen,3.60
2022-11-04T02:12:00,cen,2.40
2022-11-04T02:13:00,cen,8.40
2022-11-04T02:15:00,cen,6.00
2022-11-04T02:17:00,cen,7.20
2022-11-04T02:19:00,cen,6.00
2022-11-04T02:20:00,cen,7.20
2022-11-04T02:22:00,cen,7.20
2022-11-04T02:24:00,cen,9.60
2022-11-04T02:26:00,cen,7.20
2022-11-04T02:29:00,cen,8.40
2022-11-04T02:30:00,cen,8.40
2022-11-04T02:32:00,cen,9.60
2022-11-04T02:34:00,cen,8.40
2022-11-04T02:37:00,cen,12.00
2022-11-04T02:39:00,cen,3.60
2022-11-04T02:41:00,cen,7.20
2022-11-04T02:42:00,cen,8.40
2022-11-04T02:45:00,cen,13.20
2022-11-04T02:46:00,cen,3.60
2022-11-04T02:48:00,cen,7.20
2022-11-04T02:51:00,cen,9.60
2022-11-04T02:53:00,cen,7.20
2022-11-04T02:55:00,cen,7.20
2022-11-04T02:58:00,cen,7.20
2022-11-04T02:59:00,cen,4.80
2022-11-04T03:00:00,cen,7.20
2022-11-04T03:01:00,cen,4.80
2022-11-04T03:03:00,cen,9.60
2022-11-04T03:05:00,cen,6.00
2022-11-04T03:06:00,cen,8.40
2022-11-04T03:09:00,cen,10.80
2022-11-04T03:12:00,cen,7.20
2022-11-04T03:13:00,cen,3.60
2022-11-04T03:14:00,cen,3.60
2022-11-04T03:16:00,cen,13.20
2022-11-04T03:18:00,cen,3.60
2022-11-04T03:19:00,cen,14.40
2022-11-04T03:21:00,cen,9.60
2022-11-04T03:24:00,cen,10.80
2022-11-04T03:26:00,cen,9.60
2022-11-04T03:27:00,cen,10.80
2022-11-04T03:28:00,cen,3.60
2022-11-04T03:31:00,cen,9.60
2022-11-04T03:32:00,cen,8.40
2022-11-04T03:34:00,cen,6.00
2022-11-04T03:36:00,cen,9.60
2022-11-04T03:38:00,cen,8.40
2022-11-04T03:39:00,cen,9.60
2022-11-04T03:42:00,cen,9.60
2022-11-04T03:44:00,cen,7.20
2022-11-04T03:45:00,cen,8.40
2022-11-04T03:46:00,cen,3.60
2022-11-04T03:47:00,cen,4.80
2022-11-04T03:49:00,cen,9.60
2022-11-04T03:51:00,cen,9.60
2022-11-04T03:52:00,cen,4.80
2022-11-04T03:55:00,cen,15.60
2022-11-04T03:56:00,cen,4.80
2022-11-04T03:59:00,cen,9.60
2022-11-04T04:00:00,cen,10.80
2022-11-04T04:01:00,cen,3.60
2022-11-04T04:04:00,cen,8.40
2022-11-04T04:06:00,cen,8.40
2022-11-04T04:07:00,cen,4.80
2022-11-04T04:08:00,cen,18.00
2022-11-04T04:09:00,cen,14.40
2022-11-04T04:11:00,cen,25.20
2022-11-04T04:14:00,cen,15.60
2022-11-04T04:16:00,cen,7.20
2022-11-04T04:18:00,cen,13.20
2022-11-04T04:20:00,cen,9.60
2022-11-04T04:21:00,cen,3.60
2022-11-04T04:24:00,cen,7.20
2022-11-04T04:25:00,cen,7.20
2022-11-04T04:27:00,cen,7.20
2022-11-04T04:29:00,cen,7.20
2022-11-04T04:31:00,cen,3.60
2022-11-04T04:32:00,cen,8.40
2022-11-04T04:33:00,cen,8.40
2022-11-04T04:35:00,cen,12.00
2022-11-04T04:36:00,cen,4.80
2022-11-04T04:38:00,cen,8.40
2022-11-04T04:41:00,cen,10.80
2022-11-04T04:42:00,cen,10.80
2022-11-04T04:45:00,cen,10.80
2022-11-04T04:46:00,cen,8.40
2022-11-04T04:48:00,cen,3.60
2022-11-04T04:50:00,cen,9.60
2022-11-04T04:51:00,cen,3.60
2022-11-04T04:52:00,cen,4.80
2022-11-04T04:53:00,cen,9.60
2022-11-04T04:54:00,cen,4.80
2022-11-04T04:57:00,cen,9.60
2022-11-04T04:59:00,cen,8.40
2022-11-04T05:00:00,cen,8.40
2022-11-04T05:02:00,cen,9.60
2022-11-04T05:03:00,cen,3.60
2022-11-04T05:05:00,cen,9.60
2022-11-04T05:07:00,cen,8.40
2022-11-04T05:09:00,cen,8.40
2022-11-04T05:11:00,cen,4.80
2022-11-04T05:13:00,cen,9.60
2022-11-04T05:14:00,cen,8.40
2022-11-04T05:15:00,cen,4.80
2022-11-04T05:17:00,cen,8.40
2022-11-04T05:19:00,cen,9.60
2022-11-04T05:22:00,cen,7.20
2022-11-04T05:24:00,cen,9.60
2022-11-04T05:25:00,cen,8.40
2022-11-04T05:26:00,cen,4.80
2022-11-04T05:29:00,cen,7.20
2022-11-04T05:30:00,cen,4.80
2022-11-04T05:31:00,cen,8.40
2022-11-04T05:33:00,cen,8.40
2022-11-04T05:36:00,cen,9.60
2022-11-04T05:37:00,cen,3.60
2022-11-04T05:38:00,cen,7.20
2022-11-04T05:40:00,cen,8.40
2022-11-04T05:42:00,cen,3.60
2022-11-04T05:43:00,cen,7.20
2022-11-04T05:44:00,cen,3.60
2022-11-04T05:47:00,cen,8.40
2022-11-04T05:48:00,cen,7.20
2022-11-04T05:51:00,cen,12.00
2022-11-04T05:54:00,cen,8.40
2022-11-04T05:55:00,cen,7.20
2022-11-04T05:57:00,cen,3.60
2022-11-04T05:58:00,cen,7.20
2022-11-04T05:59:00,cen,4.80
2022-11-04T06:02:00,cen,9.60
2022-11-04T06:04:00,cen,8.40
2022-11-04T06:06:00,cen,8.40
2022-11-04T06:07:00,cen,4.80
2022-11-04T06:08:00,cen,6.00
2022-11-04T06:10:00,cen,8.40
2022-11-04T06:11:00,cen,3.60
2022-11-04T06:13:00,cen,8.40
2022-11-04T06:16:00,cen,8.40
2022-11-04T06:18:00,cen,9.60
2022-11-04T06:20:00,cen,8.40
2022-11-04T06:21:00,cen,9.60
2022-11-04T06:23:00,cen,8.40
2022-11-04T06:25:00,cen,8.40
2022-11-04T06:27:00,cen,10.80
2022-11-04T06:30:00,cen,8.40
2022-11-04T06:32:00,cen,8.40
2022-11-04T06:33:00,cen,8.40
2022-11-04T06:35:00,cen,7.20
2022-11-04T06:36:00,cen,4.80
2022-11-04T06:38:00,cen,9.60
2022-11-04T06:40:00,cen,3.60
2022-11-04T06:41:00,cen,8.40
2022-11-04T06:44:00,cen,9.60
2022-11-04T06:45:00,cen,9.60
2022-11-04T06:46:00,cen,3.60
2022-11-04T06:49:00,cen,8.40
2022-11-04T06:50:00,cen,4.80
2022-11-04T06:52:00,cen,8.40
2022-11-04T06:54:00,cen,8.40
2022-11-04T06:55:00,cen,9.60
2022-11-04T06:56:00,cen,3.60
2022-11-04T06:57:00,cen,4.80
2022-11-04T07:00:00,cen,10.80
2022-11-04T07:01:00,cen,10.80
2022-11-04T07:03:00,cen,10.80
2022-11-04T07:05:00,cen,14.40
2022-11-04T07:08:00,cen,20.40
2022-11-04T07:10:00,cen,14.40
2022-11-04T07:13:00,cen,14.40
2022-11-04T07:14:00,cen,14.40
2022-11-04T07:16:00,cen,15.60
2022-11-04T07:18:00,cen,15.60
2022-11-04T07:20:00,cen,9.60
2022-11-04T07:21:00,cen,8.40
2022-11-04T07:22:00,cen,7.20
2022-11-04T07:23:00,cen,6.00
2022-11-04T07:24:00,cen,14.40
2022-11-04T07:25:00,cen,7.20
2022-11-04T07:27:00,cen,14.40
2022-11-04T07:28:00,cen,7.20
2022-11-04T07:30:00,cen,14.40
2022-11-04T07:32:00,cen,14.40
2022-11-04T07:35:00,cen,14.40
2022-11-04T07:36:00,cen,14.40
2022-11-04T07:38:00,cen,14.40
2022-11-04T07:40:00,cen,15.60
2022-11-04T07:41:00,cen,6.00
2022-11-04T07:43:00,cen,14.40
2022-11-04T07:45:00,cen,7.20
2022-11-04T07:46:00,cen,7.20
2022-11-04T07:48:00,cen,20.40
2022-11-04T07:49:00,cen,7.20
2022-11-04T07:51:00,cen,14.40
2022-11-04T07:54:00,cen,13.20
2022-11-04T07:55:00,cen,14.40
2022-11-04T07:57:00,cen,13.20
2022-11-04T07:59:00,cen,14.40
2022-11-04T08:01:00,cen,13.20
2022-11-04T08:04:00,cen,15.60
2022-11-04T08:05:00,cen,14.40
2022-11-04T08:07:00,cen,18.00
2022-11-04T08:09:00,cen,19.20
2022-11-04T08:11:00,cen,34.80
2022-11-04T08:13:00,cen,33.60
2022-11-04T08:15:00,cen,26.40
2022-11-04T08:17:00,cen,18.00
2022-11-04T08:19:00,cen,18.00
2022-11-04T08:20:00,cen,9.60
2022-11-04T08:23:00,cen,19.20
2022-11-04T08:24:00,cen,18.00
2022-11-04T08:26:00,cen,20.40
2022-11-04T08:28:00,cen,22.80
2022-11-04T08:29:00,cen,10.80
2022-11-04T08:31:00,cen,18.00
2022-11-04T08:33:00,cen,24.00
2022-11-04T08:35:00,cen,19.20
2022-11-04T08:36:00,cen,9.60
2022-11-04T08:38:00,cen,18.00
2022-11-04T08:40:00,cen,19.20
2022-11-04T08:43:00,cen,24.00
2022-11-04T08:44:00,cen,18.00
2022-11-04T08:46:00,cen,20.40
2022-11-04T08:49:00,cen,19.20
2022-11-04T08:51:00,cen,21.60
2022-11-04T08:52:00,cen,20.40
2022-11-04T08:53:00,cen,12.00
2022-11-04T08:55:00,cen,19.20
2022-11-04T08:56:00,cen,10.80
2022-11-04T08:58:00,cen,20.40
2022-11-04T08:59:00,cen,10.80
2022-11-04T09:01:00,cen,22.80
2022-11-04T09:02:00,cen,10.80
2022-11-04T09:04:00,cen,22.80
2022-11-04T09:06:00,cen,24.00
2022-11-04T09:07:00,cen,12.00
2022-11-04T09:08:00,cen,10.80
2022-11-04T09:10:00,cen,22.80
2022-11-04T09:12:00,cen,21.60
2022-11-04T09:13:00,cen,10.80
2022-11-04T09:15:00,cen,21.60
2022-11-04T09:18:00,cen,21.60
2022-11-04T09:19:00,cen,10.80
2022-11-04T09:20:00,cen,21.60
2022-11-04T09:21:00,cen,21.60
2022-11-04T09:22:00,cen,22.80
2022-11-04T09:24:00,cen,24.00
2022-11-04T09:25:00,cen,10.80
2022-11-04T09:27:00,cen,21.60
2022-11-04T09:28:00,cen,10.80
2022-11-04T09:30:00,cen,20.40
2022-11-04T09:32:00,cen,22.80
2022-11-04T09:34:00,cen,25.20
2022-11-04T09:36:00,cen,25.20
2022-11-04T09:37:00,cen,18.00
2022-11-04T09:39:00,cen,27.60
2022-11-04T09:41:00,cen,25.20
2022-11-04T09:43:00,cen,25.20
2022-11-04T09:45:00,cen,26.40
2022-11-04T09:46:00,cen,13.20
2022-11-04T09:48:00,cen,38.40
2022-11-04T09:50:00,cen,42.00
2022-11-04T09:52:00,cen,34.80
2022-11-04T09:53:00,cen,13.20
2022-11-04T09:55:00,cen,24.00
2022-11-04T09:56:00,cen,12.00
2022-11-04T09:57:00,cen,13.20
2022-11-04T09:59:00,cen,32.40
2022-11-04T10:00:00,cen,13.20
2022-11-04T10:01:00,cen,10.80
2022-11-04T10:03:00,cen,21.60
2022-11-04T10:05:00,cen,22.80
2022-11-04T10:07:00,cen,21.60
2022-11-04T10:08:00,cen,9.60
2022-11-04T10:10:00,cen,21.60
2022-11-04T10:12:00,cen,21.60
2022-11-04T10:14:00,cen,21.60
2022-11-04T10:16:00,cen,22.80
2022-11-04T10:18:00,cen,22.80
2022-11-04T10:20:00,cen,20.40
2022-11-04T10:21:00,cen,14.40
2022-11-04T10:22:00,cen,10.80
2022-11-04T10:24:00,cen,21.60
2022-11-04T10:26:00,cen,21.60
2022-11-04T10:28:00,cen,21.60
2022-11-04T10:29:00,cen,9.60
2022-11-04T10:31:00,cen,24.00
2022-11-04T10:32:00,cen,10.80
2022-11-04T10:34:00,cen,21.60
2022-11-04T10:36:00,cen,20.40
2022-11-04T10:38:00,cen,20.40
2022-11-04T10:39:00,cen,9.60
2022-11-04T10:41:00,cen,20.40
2022-11-04T10:43:00,cen,20.40
2022-11-04T10:44:00,cen,9.60
2022-11-04T10:45:00,cen,12.00
2022-11-04T10:47:00,cen,20.40
2022-11-04T10:49:00,cen,19.20
2022-11-04T10:50:00,cen,10.80
2022-11-04T10:52:00,cen,22.80
2022-11-04T10:53:00,cen,10.80
2022-11-04T10:54:00,cen,14.40
2022-11-04T10:56:00,cen,20.40
2022-11-04T10:58:00,cen,20.40
2022-11-04T11:00:00,cen,21.60
2022-11-04T11:02:00,cen,21.60
2022-11-04T11:03:00,cen,10.80
2022-11-04T11:05:00,cen,20.40
2022-11-04T11:07:00,cen,21.60
2022-11-04T11:08:00,cen,10.80
2022-11-04T11:10:00,cen,22.80
2022-11-04T11:12:00,cen,21.60
2022-11-04T11:14:00,cen,20.40
2022-11-04T11:15:00,cen,9.60
2022-11-04T11:17:00,cen,22.80
2022-11-04T11:18:00,cen,22.80
2022-11-04T11:19:00,cen,21.60
2022-11-04T11:20:00,cen,9.60
2022-11-04T11:22:00,cen,20.40
2022-11-04T11:23:00,cen,10.80
2022-11-04T11:25:00,cen,21.60
2022-11-04T11:27:00,cen,20.40
2022-11-04T11:29:00,cen,21.60
2022-11-04T11:30:00,cen,13.20
2022-11-04T11:32:00,cen,20.40
2022-11-04T11:33:00,cen,10.80
2022-11-04T11:34:00,cen,10.80
2022-11-04T11:36:00,cen,20.40
2022-11-04T11:38:00,cen,22.80
2022-11-04T11:39:00,cen,10.80
2022-11-04T11:41:00,cen,22.80
2022-11-04T11:43:00,cen,21.60
2022-11-04T11:45:00,cen,22.80
2022-11-04T11:46:00,cen,12.00
2022-11-04T11:48:00,cen,24.00
2022-11-04T11:50:00,cen,22.80
2022-11-04T11:52:00,cen,22.80
2022-11-04T11:53:00,cen,10.80
2022-11-04T11:54:00,cen,9.60
2022-11-04T11:56:00,cen,36.00
2022-11-04T11:58:00,cen,33.60
2022-11-04T12:00:00,cen,33.60
2022-11-04T12:02:00,cen,25.20
2022-11-04T12:03:00,cen,10.80
2022-11-04T12:05:00,cen,20.40
2022-11-04T12:06:00,cen,9.60
2022-11-04T12:08:00,cen,21.60
2022-11-04T12:09:00,cen,9.60
2022-11-04T12:10:00,cen,10.80
2022-11-04T12:12:00,cen,22.80
2022-11-04T12:13:00,cen,12.00
2022-11-04T12:15:00,cen,21.60
2022-11-04T12:17:00,cen,19.20
2022-11-04T12:18:00,cen,12.00
2022-11-04T12:20:00,cen,22.80
2022-11-04T12:22:00,cen,22.80
2022-11-04T12:24:00,cen,22.80
2022-11-04T12:25:00,cen,9.60
2022-11-04T12:27:00,cen,20.40
2022-11-04T12:29:00,cen,21.60
2022-11-04T12:30:00,cen,10.80
2022-11-04T12:32:00,cen,21.60
2022-11-04T12:34:00,cen,19.20
2022-11-04T12:36:00,cen,19.20
2022-11-04T12:37:00,cen,9.60
2022-11-04T12:38:00,cen,9.60
2022-11-04T12:40:00,cen,19.20
2022-11-04T12:41:00,cen,9.60
2022-11-04T12:43:00,cen,18.00
2022-11-04T12:44:00,cen,8.40
2022-11-04T12:45:00,cen,9.60
2022-11-04T12:46:00,cen,9.60
2022-11-04T12:48:00,cen,20.40
2022-11-04T12:50:00,cen,19.20
2022-11-04T12:51:00,cen,9.60
2022-11-04T12:53:00,cen,18.00
2022-11-04T12:55:00,cen,16.80
2022-11-04T12:57:00,cen,21.60
2022-11-04T12:58:00,cen,9.60
2022-11-04T12:59:00,cen,8.40
2022-11-04T13:01:00,cen,19.20
2022-11-04T13:02:00,cen,8.40
2022-11-04T13:04:00,cen,19.20
2022-11-04T13:05:00,cen,9.60
2022-11-04T13:07:00,cen,20.40
2022-11-04T13:09:00,cen,20.40
2022-11-04T13:10:00,cen,9.60
2022-11-04T13:12:00,cen,21.60
2022-11-04T13:13:00,cen,9.60
2022-11-04T13:15:00,cen,19.20
2022-11-04T13:16:00,cen,9.60
2022-11-04T13:18:00,cen,16.80
2022-11-04T13:20:00,cen,22.80
2022-11-04T13:22:00,cen,20.40
2022-11-04T13:24:00,cen,19.20
2022-11-04T13:26:00,cen,19.20
2022-11-04T13:28:00,cen,20.40
2022-11-04T13:30:00,cen,20.40
2022-11-04T13:32:00,cen,19.20
2022-11-04T13:34:00,cen,21.60
2022-11-04T13:36:00,cen,20.40
2022-11-04T13:38:00,cen,19.20
2022-11-04T13:39:00,cen,9.60
2022-11-04T13:40:00,cen,9.60
2022-11-04T13:42:00,cen,20.40
2022-11-04T13:43:00,cen,9.60
2022-11-04T13:45:00,cen,19.20
2022-11-04T13:47:00,cen,20.40
2022-11-04T13:48:00,cen,10.80
2022-11-04T13:50:00,cen,18.00
2022-11-04T13:52:00,cen,16.80
2022-11-04T13:54:00,cen,19.20
2022-11-04T13:56:00,cen,20.40
2022-11-04T13:58:00,cen,16.80
2022-11-04T14:00:00,cen,20.40
2022-11-04T14:02:00,cen,18.00
2022-11-04T14:03:00,cen,9.60
2022-11-04T14:05:00,cen,18.00
2022-11-04T14:06:00,cen,9.60
2022-11-04T14:08:00,cen,18.00
2022-11-04T14:09:00,cen,9.60
2022-11-04T14:11:00,cen,18.00
2022-11-04T14:13:00,cen,16.80
2022-11-04T14:15:00,cen,21.60
2022-11-04T14:16:00,cen,8.40
2022-11-04T14:18:00,cen,18.00
2022-11-04T14:20:00,cen,18.00
2022-11-04T14:22:00,cen,18.00
2022-11-04T14:23:00,cen,8.40
2022-11-04T14:24:00,cen,8.40
2022-11-04T14:26:00,cen,20.40
2022-11-04T14:27:00,cen,9.60
2022-11-04T14:29:00,cen,16.80
2022-11-04T14:30:00,cen,8.40
2022-11-04T14:31:00,cen,8.40
2022-11-04T14:32:00,cen,9.60
2022-11-04T14:34:00,cen,18.00
2022-11-04T14:36:00,cen,18.00
2022-11-04T14:37:00,cen,9.60
2022-11-04T14:39:00,cen,18.00
2022-11-04T14:40:00,cen,8.40
2022-11-04T14:41:00,cen,8.40
2022-11-04T14:43:00,cen,18.00
2022-11-04T14:44:00,cen,9.60
2022-11-04T14:46:00,cen,20.40
2022-11-04T14:48:00,cen,18.00
2022-11-04T14:49:00,cen,9.60
2022-11-04T14:51:00,cen,18.00
2022-11-04T14:53:00,cen,19.20
2022-11-04T14:55:00,cen,19.20
2022-11-04T14:56:00,cen,9.60
2022-11-04T14:58:00,cen,19.20
2022-11-04T15:00:00,cen,19.20
2022-11-04T15:01:00,cen,9.60
2022-11-04T15:02:00,cen,15.60
2022-11-04T15:04:00,cen,34.80
2022-11-04T15:06:00,cen,27.60
2022-11-04T15:07:00,cen,18.00
2022-11-04T15:08:00,cen,13.20
2022-11-04T15:10:00,cen,18.00
2022-11-04T15:12:00,cen,16.80
2022-11-04T15:13:00,cen,9.60
2022-11-04T15:15:00,cen,19.20
2022-11-04T15:16:00,cen,8.40
2022-11-04T15:18:00,cen,18.00
2022-11-04T15:20:00,cen,18.00
2022-11-04T15:22:00,cen,18.00
2022-11-04T15:23:00,cen,8.40
2022-11-04T15:25:00,cen,18.00
2022-11-04T15:26:00,cen,9.60
2022-11-04T15:28:00,cen,16.80
2022-11-04T15:29:00,cen,9.60
2022-11-04T15:31:00,cen,18.00
2022-11-04T15:32:00,cen,10.80
2022-11-04T15:34:00,cen,22.80
2022-11-04T15:35:00,cen,9.60
2022-11-04T15:37:00,cen,18.00
2022-11-04T15:38:00,cen,12.00
2022-11-04T15:40:00,cen,19.20
2022-11-04T15:42:00,cen,21.60
2022-11-04T15:44:00,cen,21.60
2022-11-04T15:46:00,cen,18.00
2022-11-04T15:47:00,cen,9.60
2022-11-04T15:49:00,cen,18.00
2022-11-04T15:50:00,cen,9.60
2022-11-04T15:52:00,cen,19.20
2022-11-04T15:53:00,cen,8.40
2022-11-04T15:55:00,cen,19.20
2022-11-04T15:56:00,cen,8.40
2022-11-04T15:58:00,cen,19.20
2022-11-04T16:01:00,cen,18.00
2022-11-04T16:02:00,cen,18.00
2022-11-04T16:04:00,cen,20.40
2022-11-04T16:06:00,cen,19.20
2022-11-04T16:07:00,cen,8.40
2022-11-04T16:09:00,cen,16.80
2022-11-04T16:10:00,cen,9.60
2022-11-04T16:12:00,cen,16.80
2022-11-04T16:13:00,cen,9.60
2022-11-04T16:15:00,cen,16.80
2022-11-04T16:16:00,cen,9.60
2022-11-04T16:18:00,cen,18.00
2022-11-04T16:20:00,cen,19.20
2022-11-04T16:21:00,cen,9.60
2022-11-04T16:23:00,cen,19.20
2022-11-04T16:25:00,cen,21.60
2022-11-04T16:27:00,cen,16.80
2022-11-04T16:29:00,cen,16.80
2022-11-04T16:30:00,cen,8.40
2022-11-04T16:32:00,cen,20.40
2022-11-04T16:33:00,cen,8.40
2022-11-04T16:35:00,cen,16.80
2022-11-04T16:36:00,cen,7.20
2022-11-04T16:38:00,cen,15.60
2022-11-04T16:40:00,cen,14.40
2022-11-04T16:41:00,cen,7.20
2022-11-04T16:42:00,cen,7.20
2022-11-04T16:44:00,cen,16.80
2022-11-04T16:46:00,cen,14.40
2022-11-04T16:48:00,cen,13.20
2022-11-04T16:49:00,cen,7.20
2022-11-04T16:51:00,cen,13.20
2022-11-04T16:52:00,cen,7.20
2022-11-04T16:54:00,cen,13.20
2022-11-04T16:56:00,cen,13.20
2022-11-04T16:58:00,cen,13.20
2022-11-04T16:59:00,cen,6.00
2022-11-04T17:00:00,cen,6.00
2022-11-04T17:02:00,cen,14.40
2022-11-04T17:03:00,cen,6.00
2022-11-04T17:05:00,cen,8.40
2022-11-04T17:06:00,cen,3.60
2022-11-04T17:07:00,cen,3.60
2022-11-04T17:09:00,cen,7.20
2022-11-04T17:11:00,cen,6.00
2022-11-04T17:12:00,cen,3.60
2022-11-04T17:14:00,cen,7.20
2022-11-04T17:16:00,cen,6.00
2022-11-04T17:17:00,cen,4.80
2022-11-04T17:19:00,cen,6.00
2022-11-04T17:21:00,cen,6.00
2022-11-04T17:23:00,cen,8.40
2022-11-04T17:25:00,cen,8.40
2022-11-04T17:27:00,cen,8.40
2022-11-04T17:29:00,cen,6.00
2022-11-04T17:30:00,cen,3.60
2022-11-04T17:32:00,cen,6.00
2022-11-04T17:33:00,cen,3.60
2022-11-04T17:35:00,cen,7.20
2022-11-04T17:36:00,cen,3.60
2022-11-04T17:38:00,cen,7.20
2022-11-04T17:40:00,cen,8.40
2022-11-04T17:42:00,cen,8.40
2022-11-04T17:44:00,cen,7.20
2022-11-04T17:45:00,cen,3.60
2022-11-04T17:47:00,cen,8.40
2022-11-04T17:48:00,cen,3.60
2022-11-04T17:50:00,cen,7.20
2022-11-04T17:52:00,cen,7.20
2022-11-04T17:54:00,cen,7.20
2022-11-04T17:55:00,cen,3.60
2022-11-04T17:57:00,cen,7.20
2022-11-04T17:58:00,cen,4.80
2022-11-04T18:00:00,cen,8.40
2022-11-04T18:01:00,cen,4.80
2022-11-04T18:02:00,cen,4.80
2022-11-04T18:04:00,cen,8.40
2022-11-04T18:06:00,cen,8.40
2022-11-04T18:08:00,cen,8.40
2022-11-04T18:10:00,cen,9.60
2022-11-04T18:11:00,cen,3.60
2022-11-04T18:13:00,cen,7.20
2022-11-04T18:15:00,cen,8.40
2022-11-04T18:17:00,cen,8.40
2022-11-04T18:19:00,cen,9.60
2022-11-04T18:20:00,cen,4.80
2022-11-04T18:22:00,cen,9.60
2022-11-04T18:23:00,cen,6.00
2022-11-04T18:24:00,cen,3.60
2022-11-04T18:26:00,cen,8.40
2022-11-04T18:28:00,cen,6.00
2022-11-04T18:30:00,cen,7.20
2022-11-04T18:31:00,cen,3.60
2022-11-04T18:32:00,cen,3.60
2022-11-04T18:34:00,cen,6.00
2022-11-04T18:36:00,cen,9.60
2022-11-04T18:38:00,cen,25.20
2022-11-04T18:40:00,cen,25.20
2022-11-04T18:41:00,cen,8.40
2022-11-04T18:43:00,cen,7.20
2022-11-04T18:44:00,cen,3.60
2022-11-04T18:46:00,cen,7.20
2022-11-04T18:48:00,cen,8.40
2022-11-04T18:49:00,cen,3.60
2022-11-04T18:51:00,cen,10.80
2022-11-04T18:52:00,cen,4.80
2022-11-04T18:54:00,cen,8.40
2022-11-04T18:55:00,cen,3.60
2022-11-04T18:57:00,cen,9.60
2022-11-04T18:59:00,cen,7.20
2022-11-04T19:00:00,cen,6.00
2022-11-04T19:02:00,cen,7.20
2022-11-04T19:03:00,cen,4.80
2022-11-04T19:05:00,cen,7.20
2022-11-04T19:07:00,cen,7.20
2022-11-04T19:08:00,cen,4.80
2022-11-04T19:10:00,cen,7.20
2022-11-04T19:12:00,cen,8.40
2022-11-04T19:13:00,cen,3.60
2022-11-04T19:14:00,cen,3.60
2022-11-04T19:16:00,cen,8.40
2022-11-04T19:17:00,cen,4.80
2022-11-04T19:19:00,cen,8.40
2022-11-04T19:21:00,cen,7.20
2022-11-04T19:23:00,cen,7.20
2022-11-04T19:24:00,cen,3.60
2022-11-04T19:26:00,cen,7.20
2022-11-04T19:27:00,cen,2.40
2022-11-04T19:28:00,cen,3.60
2022-11-04T19:29:00,cen,3.60
2022-11-04T19:31:00,cen,9.60
2022-11-04T19:33:00,cen,8.40
2022-11-04T19:35:00,cen,9.60
2022-11-04T19:36:00,cen,4.80
2022-11-04T19:38:00,cen,8.40
2022-11-04T19:39:00,cen,3.60
2022-11-04T19:40:00,cen,4.80
2022-11-04T19:42:00,cen,8.40
2022-11-04T19:44:00,cen,8.40
2022-11-04T19:45:00,cen,3.60
2022-11-04T19:47:00,cen,7.20
2022-11-04T19:49:00,cen,8.40
2022-11-04T19:51:00,cen,7.20
2022-11-04T19:53:00,cen,8.40
2022-11-04T19:55:00,cen,8.40
2022-11-04T19:57:00,cen,9.60
2022-11-04T19:58:00,cen,3.60
2022-11-04T20:00:00,cen,7.20
2022-11-04T20:02:00,cen,8.40
2022-11-04T20:04:00,cen,8.40
2022-11-04T20:05:00,cen,3.60
2022-11-04T20:07:00,cen,7.20
2022-11-04T20:08:00,cen,4.80
2022-11-04T20:10:00,cen,6.00
2022-11-04T20:11:00,cen,3.60
2022-11-04T20:13:00,cen,6.00
2022-11-04T20:15:00,cen,9.60
2022-11-04T20:17:00,cen,7.20
2022-11-04T20:19:00,cen,7.20
2022-11-04T20:20:00,cen,2.40
2022-11-04T20:22:00,cen,7.20
2022-11-04T20:23:00,cen,3.60
2022-11-04T20:24:00,cen,2.40
2022-11-04T20:25:00,cen,4.80
2022-11-04T20:27:00,cen,6.00
2022-11-04T20:29:00,cen,7.20
2022-11-04T20:31:00,cen,7.20
2022-11-04T20:32:00,cen,4.80
2022-11-04T20:34:00,cen,7.20
2022-11-04T20:36:00,cen,7.20
2022-11-04T20:37:00,cen,3.60
2022-11-04T20:38:00,cen,3.60
2022-11-04T20:39:00,cen,2.40
2022-11-04T20:41:00,cen,7.20
2022-11-04T20:43:00,cen,7.20
2022-11-04T20:45:00,cen,7.20
2022-11-04T20:46:00,cen,3.60
2022-11-04T20:47:00,cen,2.40
2022-11-04T20:49:00,cen,9.60
2022-11-04T20:51:00,cen,7.20
2022-11-04T20:52:00,cen,3.60
2022-11-04T20:53:00,cen,3.60
2022-11-04T20:55:00,cen,7.20
2022-11-04T20:56:00,cen,4.80
2022-11-04T20:57:00,cen,3.60
2022-11-04T20:59:00,cen,7.20
2022-11-04T21:00:00,cen,2.40
2022-11-04T21:01:00,cen,3.60
2022-11-04T21:02:00,cen,4.80
2022-11-04T21:04:00,cen,6.00
2022-11-04T21:06:00,cen,7.20
2022-11-04T21:08:00,cen,9.60
2022-11-04T21:10:00,cen,7.20
2022-11-04T21:11:00,cen,4.80
2022-11-04T21:13:00,cen,6.00
2022-11-04T21:14:00,cen,2.40
2022-11-04T21:16:00,cen,7.20
2022-11-04T21:17:00,cen,3.60
2022-11-04T21:19:00,cen,6.00
2022-11-04T21:21:00,cen,7.20
2022-11-04T21:22:00,cen,3.60
2022-11-04T21:23:00,cen,2.40
2022-11-04T21:25:00,cen,7.20
2022-11-04T21:27:00,cen,7.20
2022-11-04T21:28:00,cen,2.40
2022-11-04T21:30:00,cen,8.40
2022-11-04T21:32:00,cen,7.20
2022-11-04T21:33:00,cen,2.40
2022-11-04T21:34:00,cen,3.60
2022-11-04T21:35:00,cen,3.60
2022-11-04T21:37:00,cen,6.00
2022-11-04T21:39:00,cen,7.20
2022-11-04T21:41:00,cen,7.20
2022-11-04T21:43:00,cen,6.00
2022-11-04T21:45:00,cen,7.20
2022-11-04T21:46:00,cen,3.60
2022-11-04T21:48:00,cen,9.60
2022-11-04T21:49:00,cen,2.40
2022-11-04T21:51:00,cen,7.20
2022-11-04T21:52:00,cen,3.60
2022-11-04T21:53:00,cen,2.40
2022-11-04T21:55:00,cen,7.20
2022-11-04T21:56:00,cen,2.40
2022-11-04T21:58:00,cen,8.40
2022-11-04T21:59:00,cen,3.60
2022-11-04T22:01:00,cen,7.20
2022-11-04T22:03:00,cen,8.40
2022-11-04T22:05:00,cen,7.20
2022-11-04T22:07:00,cen,9.60
2022-11-04T22:09:00,cen,8.40
2022-11-04T22:10:00,cen,2.40
2022-11-04T22:12:00,cen,7.20
2022-11-04T22:14:00,cen,7.20
2022-11-04T22:15:00,cen,2.40
2022-11-04T22:17:00,cen,7.20
2022-11-04T22:19:00,cen,7.20
2022-11-04T22:20:00,cen,3.60
2022-11-04T22:22:00,cen,6.00
2022-11-04T22:23:00,cen,3.60
2022-11-04T22:24:00,cen,3.60
2022-11-04T22:25:00,cen,4.80
2022-11-04T22:27:00,cen,9.60
2022-11-04T22:29:00,cen,8.40